When you browse on this site, cookies collect data to enhance your experience and personalize the content and advertising you see.
Visit our Privacy Policy to learn more. By continuing to use the site, you agree to this use of cookies and data.
  • en France
  • Liste des pays
  • À 7 jours
  • Température de l'eau
  • Carte satellitaire
  • Carte météo
  • Widgets météo
  • user-avatar
    Se connecter

    Météo par heure à Lenkoran

    Ce jour, 17 Décembre, Lundi

    Heure Température Précipitation Vent Pression Humidité
    00:00 +1°C° 0.1 mm 3 m/s 637 mmHg 84%
    01:00 +1°C° 0.1 mm 3 m/s 637 mmHg 84%
    02:00 +1°C° 0.1 mm 3 m/s 637 mmHg 85%
    03:00 +1°C° 0.1 mm 3 m/s 637 mmHg 86%
    04:00 +1°C° 0.1 mm 3 m/s 636 mmHg 86%
    05:00 +1°C° 0.1 mm 3 m/s 636 mmHg 86%
    06:00 +1°C° 0.1 mm 3 m/s 636 mmHg 86%
    07:00 +1°C° 0.1 mm 3 m/s 636 mmHg 85%
    08:00 +1°C° 0.1 mm 3 m/s 636 mmHg 83%
    09:00 +2°C° 0.1 mm 3 m/s 636 mmHg 82%
    10:00 +2°C° 0.2 mm 3 m/s 636 mmHg 80%
    11:00 +1°C° 0.2 mm 4 m/s 636 mmHg 79%
    12:00 +3°C° 0.2 mm 4 m/s 636 mmHg 78%
    13:00 +3°C° 0.7 mm 4 m/s 636 mmHg 79%
    14:00 +1°C° 0.7 mm 4 m/s 635 mmHg 80%
    15:00 +1°C° 0.7 mm 4 m/s 635 mmHg 82%
    16:00 +1°C° 1.2 mm 4 m/s 635 mmHg 84%
    17:00 +1°C° 1.2 mm 4 m/s 635 mmHg 86%
    18:00 +1°C° 1.2 mm 4 m/s 635 mmHg 88%
    19:00 +1°C° 1.6 mm 4 m/s 635 mmHg 88%
    20:00 +1°C° 1.6 mm 4 m/s 635 mmHg 89%
    21:00 +1°C° 1.6 mm 4 m/s 635 mmHg 89%
    22:00 +1°C° 1.2 mm 4 m/s 635 mmHg 90%
    23:00 +1°C° 1.2 mm 4 m/s 635 mmHg 90%

    Demain, 18 Décembre, Mardi

    Heure Température Précipitation Vent Pression Humidité
    00:00 +1°C° 1.2 mm 4 m/s 634 mmHg 90%
    01:00 +1°C° 0.9 mm 4 m/s 634 mmHg 91%
    02:00 0°C° 0.9 mm 4 m/s 634 mmHg 92%
    03:00 0°C° 0.9 mm 4 m/s 634 mmHg 92%
    04:00 +1°C° 0.9 mm 3 m/s 634 mmHg 93%
    05:00 +1°C° 0.9 mm 3 m/s 634 mmHg 93%
    06:00 +1°C° 0.9 mm 3 m/s 634 mmHg 93%
    07:00 +1°C° 2.1 mm 3 m/s 634 mmHg 93%
    08:00 +2°C° 2.1 mm 2 m/s 634 mmHg 92%
    09:00 +2°C° 2.1 mm 2 m/s 635 mmHg 92%
    10:00 +2°C° 0.7 mm 2 m/s 635 mmHg 90%
    11:00 +3°C° 0.7 mm 2 m/s 635 mmHg 88%
    12:00 +3°C° 0.7 mm 2 m/s 635 mmHg 86%
    13:00 +2°C° 0.4 mm 3 m/s 635 mmHg 85%
    14:00 +2°C° 0.4 mm 3 m/s 635 mmHg 84%
    15:00 +2°C° 0.4 mm 3 m/s 635 mmHg 83%
    16:00 +2°C° 0.3 mm 3 m/s 635 mmHg 85%
    17:00 +1°C° 0.3 mm 3 m/s 635 mmHg 88%
    18:00 +1°C° 0.3 mm 3 m/s 636 mmHg 90%
    19:00 +2°C° 0.2 mm 2 m/s 636 mmHg 91%
    20:00 +1°C° 0.2 mm 2 m/s 636 mmHg 91%
    21:00 +1°C° 0.2 mm 2 m/s 636 mmHg 91%
    22:00 +1°C° 0.2 mm 2 m/s 636 mmHg 91%
    23:00 +1°C° 0.2 mm 2 m/s 636 mmHg 91%

    Après-demain, 19 Décembre, Mercredi

    Heure Température Précipitation Vent Pression Humidité
    00:00 +1°C° 0.2 mm 2 m/s 636 mmHg 91%
    01:00 +1°C° 0.1 mm 2 m/s 636 mmHg 91%
    02:00 +1°C° 0.1 mm 2 m/s 636 mmHg 91%
    03:00 -1°C° 0.1 mm 2 m/s 636 mmHg 91%
    04:00 -1°C° 0.1 mm 2 m/s 636 mmHg 91%
    05:00 -1°C° 0.1 mm 2 m/s 636 mmHg 91%
    06:00 -1°C° 0.1 mm 2 m/s 637 mmHg 90%
    07:00 +1°C° 0 mm 2 m/s 637 mmHg 88%
    08:00 +2°C° 0 mm 2 m/s 637 mmHg 85%
    09:00 +2°C° 0 mm 2 m/s 638 mmHg 83%
    10:00 +3°C° 0 mm 2 m/s 638 mmHg 80%
    11:00 +4°C° 0 mm 2 m/s 638 mmHg 78%
    12:00 +3°C° 0 mm 3 m/s 637 mmHg 75%
    13:00 +3°C° 0 mm 3 m/s 637 mmHg 75%
    14:00 +3°C° 0 mm 3 m/s 637 mmHg 76%
    15:00 +3°C° 0 mm 3 m/s 637 mmHg 76%
    16:00 +3°C° 0.1 mm 3 m/s 637 mmHg 80%
    17:00 +2°C° 0.1 mm 3 m/s 636 mmHg 83%
    18:00 +1°C° 0.1 mm 3 m/s 636 mmHg 87%
    19:00 +1°C° 0.2 mm 3 m/s 636 mmHg 88%
    20:00 +1°C° 0.2 mm 3 m/s 636 mmHg 88%
    21:00 +1°C° 0.2 mm 3 m/s 636 mmHg 88%
    22:00 +1°C° 0.1 mm 3 m/s 636 mmHg 88%
    23:00 +1°C° 0.1 mm 3 m/s 636 mmHg 88%

    20 Décembre, Jeudi

    Heure Température Précipitation Vent Pression Humidité
    00:00 +1°C° 0.1 mm 3 m/s 636 mmHg 88%
    01:00 +1°C° 0.1 mm 3 m/s 635 mmHg 87%
    02:00 0°C° 0.1 mm 3 m/s 635 mmHg 87%
    03:00 0°C° 0.1 mm 3 m/s 635 mmHg 87%
    04:00 +1°C° 0.1 mm 2 m/s 635 mmHg 86%
    05:00 +1°C° 0.1 mm 2 m/s 634 mmHg 86%
    06:00 +1°C° 0.1 mm 2 m/s 634 mmHg 86%
    07:00 +2°C° 0.1 mm 2 m/s 634 mmHg 84%
    08:00 +2°C° 0.1 mm 2 m/s 635 mmHg 83%
    09:00 +3°C° 0.1 mm 2 m/s 635 mmHg 81%
    10:00 +3°C° 0.1 mm 2 m/s 634 mmHg 79%
    11:00 +2°C° 0.1 mm 3 m/s 634 mmHg 77%
    12:00 +3°C° 0.1 mm 3 m/s 634 mmHg 74%
    13:00 +3°C° 0.3 mm 3 m/s 633 mmHg 75%
    14:00 +3°C° 0.3 mm 3 m/s 633 mmHg 76%
    15:00 +3°C° 0.3 mm 2 m/s 633 mmHg 77%
    16:00 +3°C° 0.5 mm 2 m/s 633 mmHg 79%
    17:00 +2°C° 0.5 mm 2 m/s 633 mmHg 82%
    18:00 +2°C° 0.5 mm 2 m/s 633 mmHg 85%
    19:00 +2°C° 0.4 mm 2 m/s 633 mmHg 84%
    20:00 +2°C° 0.4 mm 2 m/s 633 mmHg 84%
    21:00 +2°C° 0.4 mm 2 m/s 633 mmHg 84%
    22:00 +1°C° 0.1 mm 2 m/s 633 mmHg 83%
    23:00 +1°C° 0.1 mm 2 m/s 633 mmHg 83%

    21 Décembre, Vendredi

    Heure Température Précipitation Vent Pression Humidité
    00:00 +1°C° 0.1 mm 2 m/s 633 mmHg 83%
    01:00 +1°C° 0.1 mm 2 m/s 633 mmHg 83%
    02:00 +1°C° 0.1 mm 2 m/s 633 mmHg 82%
    03:00 -1°C° 0.1 mm 2 m/s 633 mmHg 82%
    04:00 -1°C° 0.1 mm 2 m/s 633 mmHg 83%
    05:00 -1°C° 0.1 mm 2 m/s 633 mmHg 83%
    06:00 -1°C° 0.1 mm 2 m/s 634 mmHg 84%
    07:00 +1°C° 0.1 mm 2 m/s 634 mmHg 81%
    08:00 +1°C° 0.1 mm 2 m/s 634 mmHg 79%
    09:00 +2°C° 0.1 mm 2 m/s 635 mmHg 76%
    10:00 +2°C° 0.1 mm 2 m/s 635 mmHg 74%
    11:00 +3°C° 0.1 mm 2 m/s 635 mmHg 71%
    12:00 +3°C° 0.1 mm 2 m/s 635 mmHg 69%
    13:00 +3°C° 0.1 mm 2 m/s 635 mmHg 70%
    14:00 +3°C° 0.1 mm 2 m/s 635 mmHg 71%
    15:00 +3°C° 0.1 mm 2 m/s 635 mmHg 72%
    16:00 +3°C° 0.2 mm 1 m/s 635 mmHg 76%
    17:00 +3°C° 0.2 mm 1 m/s 635 mmHg 81%
    18:00 +2°C° 0.2 mm 1 m/s 635 mmHg 85%
    19:00 +2°C° 0.2 mm 1 m/s 635 mmHg 86%
    20:00 +2°C° 0.2 mm 1 m/s 635 mmHg 86%
    21:00 +1°C° 0.2 mm 1 m/s 635 mmHg 86%
    22:00 +1°C° 0.1 mm 1 m/s 635 mmHg 85%
    23:00 +1°C° 0.1 mm 1 m/s 634 mmHg 85%

    22 Décembre, Samedi

    Heure Température Précipitation Vent Pression Humidité
    00:00 +1°C° 0.1 mm 1 m/s 634 mmHg 84%
    01:00 0°C° 0.1 mm 1 m/s 634 mmHg 83%
    02:00 0°C° 0.1 mm 1 m/s 634 mmHg 81%
    03:00 0°C° 0.1 mm 1 m/s 634 mmHg 80%
    04:00 0°C° 0.1 mm 1 m/s 634 mmHg 79%
    05:00 0°C° 0.1 mm 1 m/s 634 mmHg 79%
    06:00 0°C° 0.1 mm 1 m/s 634 mmHg 78%
    07:00 +1°C° 0.1 mm 1 m/s 634 mmHg 76%
    08:00 +2°C° 0.1 mm 1 m/s 634 mmHg 73%
    09:00 +2°C° 0.1 mm 1 m/s 635 mmHg 70%
    10:00 +2°C° 0.1 mm 2 m/s 634 mmHg 69%
    11:00 +3°C° 0.1 mm 2 m/s 634 mmHg 68%
    12:00 +4°C° 0.1 mm 2 m/s 634 mmHg 66%
    13:00 +3°C° 0.1 mm 3 m/s 633 mmHg 67%
    14:00 +3°C° 0.1 mm 3 m/s 633 mmHg 68%
    15:00 +3°C° 0.1 mm 3 m/s 632 mmHg 69%
    16:00 +2°C° 0 mm 3 m/s 632 mmHg 73%
    17:00 +1°C° 0 mm 3 m/s 632 mmHg 77%
    18:00 0°C° 0 mm 3 m/s 632 mmHg 81%
    19:00 0°C° 0 mm 3 m/s 631 mmHg 79%
    20:00 -1°C° 0 mm 3 m/s 631 mmHg 77%
    21:00 -1°C° 0 mm 3 m/s 631 mmHg 74%
    22:00 -1°C° 0 mm 3 m/s 631 mmHg 73%
    23:00 -1°C° 0 mm 3 m/s 630 mmHg 72%
    Voir plus